Location: Killam
(52.7910°N, 111.8608°W)
Time: 11:26:27
(UTC+00:00)

Vanguard 3 - All Passes

Search period start: 16 February 2026 00:00
Search period end: 26 February 2026 00:00
Orbit: 507 x 3205 km, 33.3° (Epoch: 16 February)

Date Brightness Start Highest point End Pass type
(mag) Time Alt. Az. Time Alt. Az. Time Alt. Az.
17 Feb - 00:45:46 10° S 00:47:01 10° S 00:48:10 10° SSE daylight
17 Feb - 23:23:44 10° S 23:25:48 11° S 23:27:40 10° SSE daylight
18 Feb - 01:34:10 10° SSW 01:35:53 11° S 01:37:26 10° S visible
19 Feb - 00:10:57 10° SSW 00:14:50 14° S 00:18:01 10° SSE daylight
19 Feb - 22:48:34 10° SSW 22:53:29 14° S 22:57:24 10° SE daylight
20 Feb - 00:59:54 10° SW 01:03:45 14° S 01:06:51 10° SSE daylight
20 Feb - 21:27:23 10° S 21:31:46 12° SSE 21:35:29 10° SE daylight
20 Feb - 23:36:37 10° SW 23:42:34 17° S 23:47:02 10° SE daylight
21 Feb - 01:50:00 10° SW 01:52:28 12° SSW 01:54:36 10° S visible
21 Feb - 22:13:51 10° SSW 22:21:00 17° S 22:26:22 10° SE daylight
22 Feb - 00:25:48 10° SW 00:31:32 17° S 00:35:47 10° SSE daylight
22 Feb - 20:52:05 10° S 20:59:04 15° SSE 21:04:38 10° SE daylight
22 Feb - 23:02:16 10° SW 23:10:09 21° S 23:15:46 10° SE daylight
23 Feb - 01:15:50 10° SW 01:20:16 15° SSW 01:23:45 10° SSE daylight
23 Feb - 19:32:56 10° SSE 19:36:54 11° SSE 19:40:29 10° SE daylight
23 Feb - 21:39:11 10° SSW 21:48:20 21° S 21:55:00 10° SE daylight
23 Feb - 23:51:37 10° SW 23:59:10 21° S 00:04:30 10° SE daylight
24 Feb - 02:08:12 10° SW 02:08:45 10° SSW 02:09:16 10° SSW visible
24 Feb - 20:17:05 10° SSW 20:26:10 18° SSE 20:33:15 10° ESE daylight
24 Feb - 22:27:49 10° SW 22:37:34 24° S 22:44:18 10° SE daylight
25 Feb - 00:41:41 10° WSW 00:47:56 18° SSW 00:52:34 10° SSE daylight
25 Feb - 18:57:05 10° S 19:03:49 14° SSE 19:09:39 10° SE daylight
25 Feb - 21:04:30 10° SSW 21:15:30 24° SSE 21:23:23 10° ESE daylight
25 Feb - 23:17:18 10° SW 23:26:39 24° S 23:33:01 10° SE daylight
